Regional Weather Roundup
Issued by NWS Goodland, KS

Home | Current Version | Previous Version | Graphics & Text | Print | Product List | Glossary On
Versions: 1 2 3 4 5 6 7 8 9 10 11 12 13 14 15 16 17 18 19 20 21 22 23 24 25 26 27 28 29 30 31 32 33 34 35 36 37 38 39 40 41 42 43 44 45 46 47 48 49 50
000
ASUS43 KGLD 300908
RWRGLD

GOODLAND FORECAST AREA HOURLY WEATHER ROUNDUP
NATIONAL WEATHER SERVICE GOODLAND KS
300 AM MDT TUE SEP 30 2014

...OFFICIAL OBSERVATIONS...

CITY           SKY/WX    TMP DP  RH WIND       PRES   REMARKS
GOODLAND KS    CLEAR     50  46  86 W7        29.87F
HILL CITY KS   CLOUDY    65  57  75 S12       29.82F
IMPERIAL NEB   PTCLDY    53  48  83 SW12      29.80R
MCCOOK NEB     PTCLDY    60  56  86 SW17G25   29.79R
AKRON CO       MOCLDY    47  46  97 SW10      29.83S
BURLINGTON CO  PTCLDY    49  44  83 W6        29.86F
LIMON CO       PTCLDY    42  41  96 N5        29.88F
$$

...UNOFFICIAL OBSERVATIONS...

CITY           SKY/WX    TMP DP  RH WIND       PRES   REMARKS
COLBY KS       CLEAR     54  54 100 SW6       29.86F
GOVE KS          N/A     62  32  32 MISG        N/A
NORTON KS      CLOUDY    63  54  72 SE10      29.79
SHARON SPRINGS   N/A     51  48  91 CALM        N/A
WAKEENEY KS      N/A     66  57  72 MISG        N/A
KIT CARSON CO    N/A     50  44  80 MISG        N/A
YUMA CO          N/A     49  47  93 SW8         N/A
$$


USA.gov is the U.S. government's official web portal to all federal, state and local government web resources and services.